Weather History for KCZZ - January, 2012

Change the Weather History Date:

Saturday, January 21, 2012

  Actual Average Record
Temperature  
Mean Temperature 43 °F 49 °F  
Max Temperature 52 °F 63 °F 78 °F (1994)
Min Temperature 34 °F 35 °F 18 °F (1966)
Degree Days  
Heating Degree Days 22 16  
Month to date heating degree days 322 347  
Since 1 July heating degree days 1588 1453  
Cooling Degree Days 0 0  
Month to date cooling degree days 0 0  
Year to date cooling degree days 0 0  
Moisture  
Dew Point 39 °F    
Average Humidity 82    
Maximum Humidity 100    
Minimum Humidity 64    
Precipitation  
Precipitation 0.04 in 0.10 in 2.12 in (1962)
Month to date precipitation 0.10 2.05  
Year to date precipitation 0.10 2.05  
Since 1 July precipitation 5.34  
Snow  
Snow 0.00 in - - ()
Month to date snowfall 0.0  
Year to date snowfall 0.0  
Since 1 July snowfall 0.0  
Snow Depth 0.00 in    
Sea Level Pressure  
Sea Level Pressure 29.98 in    
Wind  
Wind Speed 11 mph (WSW)    
Max Wind Speed 33 mph    
Max Gust Speed 44 mph    
T = Trace of Precipitation, MM = Missing Value Source: NWS Daily Summary

Daily Weather History Graph

Daily Weather History Graph

Search for Another Location

Airport or City:

Trip Planner

Search our weather history database for the weather conditions in past years. The results will help you decide how hot, cold, wet, or windy it might be!

Date:

Astronomy

Jan. 21, 2012 Rise Set
Actual Time 6:46 AM PST 5:08 PM PST
Civil Twilight 6:20 AM PST 5:34 PM PST
Nautical Twilight 5:50 AM PST 6:04 PM PST
Astronomical Twilight 5:20 AM PST 6:33 PM PST
Moon 5:18 AM PST (1/21) 3:50 PM PST (1/21)
Length of Visible Light 11h 14m
Length of Day
10h 21m
Waning Crescent, 3% of the Moon is Illuminated
Jan 21
Waning Crescent
Jan 22
New
Jan 30
First Quarter
Feb 7
Full
Feb 14
Last Quarter

Hourly Weather History & Observations

Time (PST) Temp. Windchill Dew Point Humidity Pressure Visibility Wind Dir Wind Speed Gust Speed Precip Events Conditions
12:52 AM 36.0 °F 32.1 °F 30.0 °F 79% 30.00 in - ENE 4.6 mph - N/A   Unknown
1:52 AM 37.0 °F 34.5 °F 30.0 °F 76% 29.99 in - NE 3.5 mph - N/A   Unknown
2:52 AM 34.0 °F 29.8 °F 28.9 °F 82% 29.98 in - North 4.6 mph - N/A   Unknown
3:52 AM 37.9 °F 35.5 °F 28.0 °F 68% 29.95 in - NE 3.5 mph - N/A   Unknown
4:52 AM 39.9 °F - 28.9 °F 65% 29.97 in - Calm Calm - N/A   Unknown
5:52 AM 41.0 °F - 32.0 °F 70% 29.97 in - Calm Calm - N/A   Unknown
6:52 AM 44.1 °F - 33.1 °F 65% 29.98 in - Calm Calm - N/A   Unknown
7:52 AM 46.0 °F 39.6 °F 39.9 °F 79% 29.99 in - SSW 15.0 mph - N/A   Unknown
8:52 AM 46.0 °F 39.6 °F 45.0 °F 96% 30.01 in - SW 15.0 mph - 0.01 in   Unknown
9:52 AM 46.9 °F - 46.0 °F 97% 30.01 in - SW 21.9 mph 27.6 mph N/A   Unknown
10:52 AM 48.9 °F - 46.9 °F 93% 29.99 in - SW 21.9 mph 31.1 mph 0.02 in   Unknown
11:52 AM 50.0 °F - 48.0 °F 93% 29.96 in - WSW 21.9 mph 32.2 mph 0.01 in   Unknown
12:52 PM 50.0 °F - 48.0 °F 93% 29.94 in - WSW 23.0 mph 35.7 mph N/A   Unknown
1:52 PM 52.0 °F - 46.9 °F 83% 29.95 in - West 20.7 mph 36.8 mph N/A   Unknown
2:52 PM 50.0 °F - 44.1 °F 80% 29.96 in - West 20.7 mph 33.4 mph N/A   Unknown
3:52 PM 50.0 °F - 42.1 °F 74% 29.95 in - West 16.1 mph 29.9 mph N/A   Unknown
4:52 PM 48.0 °F - 39.9 °F 74% 29.96 in - WSW 3.5 mph - N/A   Unknown
5:52 PM 45.0 °F 40.1 °F 37.9 °F 76% 29.96 in - SW 9.2 mph - N/A   Unknown
6:52 PM 46.0 °F 43.1 °F 41.0 °F 83% 29.98 in - SW 5.8 mph - N/A   Unknown
7:52 PM 44.1 °F 39.5 °F 39.9 °F 85% 29.99 in - WSW 8.1 mph - N/A   Unknown
8:52 PM 44.1 °F 40.1 °F 41.0 °F 89% 30.01 in - SSW 6.9 mph - N/A   Unknown
9:52 PM 41.0 °F - 37.9 °F 89% 30.04 in - Calm Calm - N/A   Unknown
10:52 PM 36.0 °F - 35.1 °F 97% 30.04 in - Calm Calm - N/A   Unknown
11:52 PM 36.0 °F - 34.0 °F 93% 30.05 in - Calm Calm - N/A   Unknown